1516748400.69,55579,4.88,73510.0,-13.49,-15.21,-15.39,0,*6D
1516748401.98,55580,4.88,73508.0,-13.49,-15.21,-15.39,0,*6B
1516748403.21,55581,4.88,73510.8,-13.47,-15.15,-15.29,0,*62
1516748404.5,55582,4.88,73510.8,-13.49,-15.21,-15.39,0,*69
1516748405.76,55583,4.88,73512.0,-13.49,-15.11,-15.43,0,*66
1516748407.03,55584,4.88,73512.0,-13.49,-15.11,-15.39,0,*6C
1516748408.27,55585,4.88,73512.8,-13.49,-15.07,-15.25,0,*67
1516748409.54,55586,4.88,73508.8,-13.49,-15.11,-15.35,0,*62
1516748410.79,55587,4.88,73510.5,-13.47,-15.01,-15.21,0,*69
1516748412.03,55588,4.88,73506.8,-13.47,-14.93,-15.07,0,*68
1516748413.32,55589,4.88,73510.5,-13.49,-14.97,-15.21,0,*67
1516748414.56,55590,4.88,73508.8,-13.49,-15.07,-15.25,0,*63
1516748415.81,55591,4.88,73512.0,-13.49,-15.07,-15.25,0,*62
1516748417.09,55592,4.88,73508.3,-13.49,-14.97,-15.35,0,*68
1516748418.36,55593,4.88,73508.0,-13.49,-14.97,-15.25,0,*68
1516748419.62,55594,4.88,73510.0,-13.49,-15.07,-15.35,0,*66
1516748420.87,55595,4.88,73508.0,-13.49,-15.11,-15.25,0,*61
1516748422.13,55596,4.88,73508.5,-13.49,-15.11,-15.35,0,*63
1516748423.39,55597,4.88,73508.0,-13.49,-15.21,-15.25,0,*60
1516748424.63,55598,4.88,73508.0,-13.47,-15.07,-15.35,0,*64
1516748425.87,55599,4.88,73508.3,-13.47,-15.07,-15.35,0,*65
1516748427.16,55600,4.88,73510.3,-13.49,-15.21,-15.35,0,*6C
1516748428.45,55601,4.88,73506.3,-13.49,-15.21,-15.39,0,*61
1516748429.74,55602,4.88,73508.3,-13.49,-15.21,-15.39,0,*62
1516748431.0,55603,4.88,73508.0,-13.47,-15.21,-15.35,0,*61
1516748432.26,55604,4.88,73506.8,-13.47,-15.21,-15.39,0,*6A
1516748433.51,55605,4.88,73508.0,-13.49,-15.25,-15.53,0,*6D
1516748434.81,55606,4.88,73510.8,-13.49,-15.35,-15.43,0,*6E
1516748436.05,55607,4.88,73508.0,-13.47,-15.25,-15.57,0,*65
1516748437.29,55608,4.88,73510.0,-13.47,-15.21,-15.53,0,*6A
1516748438.53,55609,4.88,73506.0,-13.47,-15.21,-15.53,0,*6B
1516748439.78,55610,4.88,73512.5,-13.49,-15.25,-15.53,0,*69
1516748441.02,55611,4.88,73512.0,-13.47,-15.21,-15.49,0,*69
1516748442.27,55612,4.88,73508.3,-13.49,-15.25,-15.25,0,*6A
1516748443.54,55613,4.88,73508.8,-13.49,-14.97,-15.25,0,*63
1516748444.8,55614,4.88,73508.8,-13.47,-14.93,-15.21,0,*6A
1516748446.06,55615,4.88,73506.8,-13.47,-14.79,-15.01,0,*6D
1516748447.36,55616,4.88,73504.3,-13.49,-14.55,-14.83,0,*65
1516748448.61,55617,4.88,73508.8,-13.47,-14.51,-14.65,0,*66
1516748449.83,55618,4.88,73514.8,-13.47,-14.37,-14.65,0,*69
1516748451.09,55619,4.88,73504.8,-13.47,-14.47,-14.65,0,*6F
1516748452.34,55620,4.88,73506.0,-13.47,-14.47,-14.65,0,*65
1516748453.6,55621,4.88,73508.8,-13.47,-14.47,-14.65,0,*64
1516748454.84,55622,4.88,73504.0,-13.47,-14.61,-14.79,0,*6E
1516748456.06,55623,4.88,73506.8,-13.47,-14.61,-14.89,0,*60
1516748457.3,55624,4.88,73504.0,-13.47,-14.65,-14.79,0,*6C
1516748458.53,55625,4.88,73502.8,-13.43,-14.65,-14.93,0,*6D
1516748459.82,55626,4.88,73498.8,-13.45,-14.79,-14.93,0,*65
1516748461.09,55627,4.88,73502.3,-13.45,-14.79,-15.15,0,*6B
1516748462.37,55628,4.88,73504.8,-13.45,-15.01,-15.21,0,*6D
1516748463.62,55629,4.88,73508.0,-13.43,-15.01,-15.21,0,*6A
1516748464.91,55630,4.88,73506.8,-13.45,-15.01,-15.21,0,*64
1516748466.17,55631,4.88,73504.5,-13.45,-15.07,-15.21,0,*63
1516748467.42,55632,4.88,73504.5,-13.45,-15.07,-15.29,0,*68
1516748468.69,55633,4.88,73506.5,-13.45,-15.15,-15.39,0,*6B
1516748469.95,55634,4.88,73508.0,-13.45,-15.07,-15.35,0,*63
1516748471.22,55635,4.88,73508.3,-13.45,-15.07,-15.39,0,*6E
1516748472.5,55636,4.88,73506.0,-13.45,-15.21,-15.35,0,*65
1516748473.77,55637,4.88,73504.0,-13.43,-15.21,-15.39,0,*6E
1516748475.06,55638,4.88,73502.5,-13.45,-15.21,-15.39,0,*67
1516748476.32,55639,4.88,73506.3,-13.45,-15.21,-15.49,0,*61
1516748477.59,55640,4.88,73506.8,-13.45,-15.15,-15.35,0,*63
1516748478.85,55641,4.88,73508.8,-13.43,-15.21,-15.21,0,*66
1516748480.11,55642,4.88,73510.0,-13.43,-15.21,-15.39,0,*6C
1516748481.38,55643,4.88,73508.0,-13.45,-15.29,-15.35,0,*6F
1516748482.64,55644,4.88,73506.0,-13.45,-15.21,-15.53,0,*60
1516748483.91,55645,4.88,73506.3,-13.45,-15.21,-15.49,0,*6A
1516748485.13,55646,4.88,73508.5,-13.43,-15.29,-15.53,0,*6C
1516748486.42,55647,4.88,73508.0,-13.45,-15.21,-15.39,0,*6F
1516748487.67,55648,4.88,73508.0,-13.45,-15.29,-15.53,0,*64
1516748488.94,55649,4.88,73508.5,-13.45,-15.21,-15.49,0,*66
1516748490.21,55650,4.88,73508.0,-13.45,-15.35,-15.53,0,*60
1516748491.48,55651,4.88,73508.8,-13.45,-15.35,-15.53,0,*61
1516748492.75,55652,4.88,73510.8,-13.45,-15.39,-15.53,0,*6E
1516748493.99,55653,4.88,73504.0,-13.43,-15.35,-15.63,0,*66
1516748495.25,55654,4.88,73506.3,-13.45,-15.39,-15.67,0,*6F
1516748496.52,55655,4.88,73506.5,-13.45,-15.35,-15.75,0,*61
1516748497.76,55656,4.88,73504.3,-13.47,-15.39,-15.67,0,*6F
1516748499.0,55657,4.88,73504.0,-13.47,-15.35,-15.63,0,*66
1516748500.25,55658,4.88,73506.8,-13.47,-15.35,-15.53,0,*6A
1516748501.52,55659,4.88,73504.0,-13.45,-15.35,-15.49,0,*62
1516748502.76,55660,4.88,73508.5,-13.47,-15.21,-15.53,0,*64
1516748504.03,55661,4.88,73512.5,-13.49,-15.25,-15.57,0,*6B
1516748505.25,55662,4.88,73508.0,-13.47,-15.29,-15.53,0,*6E
1516748506.48,55663,4.88,73506.5,-13.47,-15.29,-15.49,0,*64
1516748507.73,55664,4.88,73506.8,-13.49,-15.25,-15.53,0,*6A
1516748508.95,55665,4.88,73504.5,-13.47,-15.25,-15.53,0,*65
1516748510.22,55666,4.88,73506.0,-13.49,-15.35,-15.53,0,*69
1516748511.49,55667,4.88,73510.3,-13.45,-15.21,-15.49,0,*6A
1516748512.76,55668,4.88,73506.5,-13.49,-15.35,-15.53,0,*67
1516748514.0,55669,4.88,73508.3,-13.47,-15.21,-15.53,0,*6D
1516748515.27,55670,4.88,73508.5,-13.49,-15.35,-15.53,0,*6E
1516748516.54,55671,4.88,73510.0,-13.49,-15.39,-15.67,0,*64
1516748517.77,55672,4.88,73510.8,-13.47,-15.35,-15.67,0,*65
1516748519.04,55673,4.88,73508.8,-13.49,-15.39,-15.67,0,*66
1516748520.3,55674,4.88,73508.3,-13.49,-15.35,-15.67,0,*6D
1516748521.52,55675,4.88,73510.8,-13.47,-15.29,-15.53,0,*68
1516748522.81,55676,4.88,73516.8,-13.49,-15.39,-15.57,0,*60
1516748524.08,55677,4.88,73510.5,-13.49,-15.35,-15.67,0,*6E
1516748525.32,55678,4.88,73514.5,-13.47,-15.21,-15.53,0,*6D
1516748526.59,55679,4.88,73512.5,-13.49,-15.25,-15.39,0,*6A
1516748527.81,55680,4.88,73508.5,-13.47,-15.07,-15.29,0,*63
1516748529.1,55681,4.88,73510.3,-13.49,-15.21,-15.39,0,*69
1516748530.39,55682,4.88,73504.5,-13.49,-15.21,-15.39,0,*6A
1516748531.66,55683,4.88,73502.0,-13.45,-15.15,-15.35,0,*6C
1516748532.9,55684,4.88,73508.8,-13.49,-15.11,-15.25,0,*62
1516748534.17,55685,4.88,73508.8,-13.49,-15.11,-15.35,0,*62
1516748535.41,55686,4.88,73510.0,-13.49,-15.07,-15.25,0,*67
1516748536.7,55687,4.88,73510.0,-13.49,-14.97,-15.21,0,*6A
1516748537.98,55688,4.88,73512.5,-13.49,-14.97,-15.21,0,*65
1516748539.26,55689,4.88,73510.8,-13.49,-14.97,-15.21,0,*64
1516748540.55,55690,4.88,73510.3,-13.49,-14.97,-15.21,0,*6C
1516748541.79,55691,4.88,73508.0,-13.47,-14.79,-15.07,0,*67
1516748543.05,55692,4.88,73514.3,-13.47,-14.75,-14.93,0,*64
1516748544.29,55693,4.88,73510.5,-13.49,-14.69,-15.07,0,*6A
1516748545.5,55694,4.88,73508.0,-13.47,-14.65,-14.89,0,*68
1516748546.77,55695,4.88,73514.5,-13.47,-14.47,-14.75,0,*6A
1516748548.05,55696,4.88,73508.0,-13.49,-14.43,-14.65,0,*62
1516748549.27,55697,4.88,73506.8,-13.47,-14.19,-14.37,0,*65
1516748550.49,55698,4.88,73506.5,-13.47,-14.15,-14.37,0,*66
1516748551.76,55699,4.88,73504.5,-13.45,-14.05,-14.33,0,*60
1516748553.04,55700,4.88,73500.8,-13.45,-14.05,-14.33,0,*61
1516748554.26,55701,4.88,73500.5,-13.43,-14.19,-14.33,0,*6B
1516748555.48,55702,4.88,73500.0,-13.43,-14.19,-14.37,0,*6C
1516748556.72,55703,4.88,73500.5,-13.43,-14.33,-14.47,0,*62
1516748557.96,55704,4.88,73500.3,-13.43,-14.33,-14.51,0,*62
1516748559.23,55705,4.88,73498.5,-13.37,-14.37,-14.55,0,*60
1516748560.5,55706,4.88,73494.8,-13.41,-14.47,-14.69,0,*6A
1516748561.8,55707,4.88,73494.5,-13.41,-14.55,-14.75,0,*65
1516748563.09,55708,4.88,73496.0,-13.37,-14.43,-14.79,0,*60
1516748564.34,55709,4.88,73502.3,-13.41,-14.61,-14.89,0,*6F
1516748565.63,55710,4.88,73506.8,-13.37,-14.55,-14.83,0,*6B
1516748566.89,55711,4.88,73504.8,-13.37,-14.65,-14.93,0,*68
1516748568.16,55712,4.88,73504.0,-13.37,-14.79,-15.07,0,*6A
1516748569.39,55713,4.88,73504.0,-13.37,-14.69,-15.07,0,*6A
1516748570.66,55714,4.88,73510.3,-13.41,-14.97,-15.11,0,*6A
1516748571.92,55715,4.88,73506.3,-13.41,-14.97,-15.11,0,*6B
1516748573.19,55716,4.88,73504.3,-13.41,-15.01,-15.25,0,*61
1516748574.47,55717,4.88,73510.8,-13.37,-14.97,-15.21,0,*6B
1516748575.74,55718,4.88,73504.8,-13.41,-15.01,-15.29,0,*63
1516748577.01,55719,4.88,73504.0,-13.41,-15.01,-15.25,0,*6E
1516748578.27,55720,4.88,73506.5,-13.37,-14.93,-15.11,0,*68
1516748579.53,55721,4.88,73508.3,-13.41,-14.97,-15.15,0,*68
1516748580.8,55722,4.88,73506.3,-13.41,-14.97,-15.25,0,*68
1516748582.07,55723,4.88,73508.8,-13.41,-14.97,-15.15,0,*6A
1516748583.33,55724,4.88,73510.8,-13.37,-14.93,-15.11,0,*6C
1516748584.57,55725,4.88,73504.5,-13.41,-14.89,-15.15,0,*63
1516748585.84,55726,4.88,73506.0,-13.37,-14.83,-15.11,0,*6F
1516748587.11,55727,4.88,73502.8,-13.37,-14.83,-15.11,0,*6E
1516748588.36,55728,4.88,73506.8,-13.41,-14.89,-15.15,0,*6E
1516748589.62,55729,4.88,73506.8,-13.37,-14.97,-15.11,0,*65
1516748590.88,55730,4.88,73506.8,-13.37,-14.93,-15.11,0,*69
1516748592.14,55731,4.88,73508.3,-13.37,-14.97,-15.11,0,*6C
1516748593.4,55732,4.88,73504.5,-13.37,-14.97,-15.11,0,*6F
1516748594.64,55733,4.88,73506.0,-13.41,-14.89,-15.15,0,*64
1516748595.91,55734,4.88,73504.8,-13.37,-14.83,-15.11,0,*6C
1516748597.2,55735,4.88,73504.5,-13.37,-14.93,-15.21,0,*6F
1516748598.44,55736,4.88,73504.8,-13.37,-15.07,-15.11,0,*63
1516748599.7,55737,4.88,73508.8,-13.37,-14.97,-15.11,0,*6A
1516748600.96,55738,4.88,73510.0,-13.41,-15.01,-15.11,0,*6A
1516748602.22,55739,4.88,73510.0,-13.37,-15.07,-15.21,0,*6F
1516748603.5,55740,4.88,73506.0,-13.37,-14.97,-15.21,0,*69
1516748604.78,55741,4.88,73504.0,-13.37,-14.97,-15.21,0,*68
1516748606.07,55742,4.88,73500.5,-13.37,-14.97,-15.21,0,*6B
1516748607.33,55743,4.88,73498.0,-13.37,-15.07,-15.21,0,*62
1516748608.58,55744,4.88,73504.5,-13.37,-15.07,-15.25,0,*61
1516748609.84,55745,4.88,73504.0,-13.37,-14.97,-15.29,0,*64
1516748611.09,55746,4.88,73504.3,-13.37,-15.07,-15.29,0,*6F
1516748612.34,55747,4.88,73506.5,-13.41,-15.11,-15.25,0,*64
1516748613.58,55748,4.88,73504.0,-13.37,-15.07,-15.29,0,*61
1516748614.83,55749,4.88,73508.5,-13.37,-15.07,-15.29,0,*60
1516748616.07,55750,4.88,73506.5,-13.37,-15.07,-15.29,0,*68
1516748617.34,55751,4.88,73508.3,-13.37,-15.11,-15.39,0,*6F
1516748618.6,55752,4.88,73512.5,-13.37,-15.11,-15.43,0,*61
1516748619.85,55753,4.88,73512.0,-13.37,-15.11,-15.29,0,*6C
1516748621.11,55754,4.88,73510.8,-13.37,-15.11,-15.39,0,*6A
1516748622.37,55755,4.88,73510.0,-13.41,-15.25,-15.49,0,*6A
1516748623.62,55756,4.88,73512.0,-13.41,-15.25,-15.49,0,*69
1516748624.91,55757,4.88,73512.8,-13.37,-15.21,-15.43,0,*67
1516748626.19,55758,4.88,73512.3,-13.37,-15.21,-15.43,0,*68
1516748627.45,55759,4.88,73510.3,-13.41,-15.25,-15.49,0,*66
1516748628.72,55760,4.88,73512.5,-13.41,-15.25,-15.57,0,*63
1516748629.97,55761,4.88,73516.0,-13.41,-15.25,-15.49,0,*6D
1516748631.23,55762,4.88,73514.0,-13.41,-15.25,-15.49,0,*6E
1516748632.48,55763,4.88,73512.8,-13.41,-15.29,-15.49,0,*63
1516748633.73,55764,4.88,73514.8,-13.37,-15.25,-15.53,0,*62
1516748635.01,55765,4.88,73510.3,-13.37,-15.21,-15.43,0,*66
1516748636.27,55766,4.88,73510.5,-13.41,-15.15,-15.29,0,*6F
1516748637.51,55767,4.88,73516.0,-13.37,-15.07,-15.25,0,*60
1516748638.77,55768,4.88,73510.5,-13.41,-15.01,-15.15,0,*6B
1516748640.02,55769,4.88,73508.5,-13.41,-14.89,-15.11,0,*6F
1516748641.29,55770,4.88,73512.5,-13.41,-14.89,-15.01,0,*66
1516748642.55,55771,4.88,73510.5,-13.37,-14.69,-14.97,0,*66
1516748643.81,55772,4.88,73508.3,-13.41,-14.69,-14.97,0,*64
1516748645.11,55773,4.88,73510.8,-13.41,-14.55,-14.83,0,*6F
1516748646.41,55774,4.88,73510.5,-13.41,-14.47,-14.75,0,*62
1516748647.68,55775,4.88,73510.3,-13.37,-14.29,-14.51,0,*6C
1516748648.94,55776,4.88,73508.3,-13.37,-14.29,-14.43,0,*6C
1516748650.18,55777,4.88,73502.5,-13.37,-14.19,-14.29,0,*62
1516748651.43,55778,4.88,73496.3,-13.37,-14.11,-14.29,0,*65
1516748652.7,55779,4.88,73496.0,-13.37,-14.05,-14.29,0,*61
1516748653.97,55780,4.88,73502.3,-13.37,-14.05,-14.23,0,*6D
1516748655.22,55781,4.88,73498.3,-13.37,-14.11,-14.23,0,*69
1516748656.47,55782,4.88,73502.3,-13.37,-14.11,-14.23,0,*6A
1516748657.69,55783,4.88,73502.0,-13.35,-14.15,-14.33,0,*6C
1516748658.91,55784,4.88,73502.3,-13.35,-14.19,-14.37,0,*63
1516748660.18,55785,4.88,73500.5,-13.37,-14.11,-14.43,0,*6B
1516748661.4,55786,4.88,73504.0,-13.35,-14.15,-14.33,0,*69
1516748662.66,55787,4.88,73502.0,-13.33,-14.15,-14.23,0,*6F
1516748663.93,55788,4.88,73494.8,-13.33,-14.05,-14.33,0,*60
1516748665.18,55789,4.88,73500.0,-13.33,-14.15,-14.33,0,*60
1516748666.46,55790,4.88,73502.8,-13.33,-14.01,-14.23,0,*6C
1516748667.73,55791,4.88,73502.8,-13.29,-14.01,-14.29,0,*6C
1516748668.98,55792,4.88,73502.0,-13.29,-14.15,-14.33,0,*61
1516748670.23,55793,4.88,73496.5,-13.29,-14.19,-14.33,0,*6C
1516748671.51,55794,4.88,73500.5,-13.29,-14.19,-14.47,0,*68
1516748672.77,55795,4.88,73502.3,-13.29,-14.29,-14.55,0,*69
1516748674.03,55796,4.88,73502.0,-13.27,-14.19,-14.55,0,*67
1516748675.27,55797,4.88,73502.8,-13.27,-14.33,-14.55,0,*6E
1516748676.52,55798,4.88,73504.8,-13.27,-14.47,-14.69,0,*6D
1516748677.75,55799,4.88,73504.8,-13.27,-14.33,-14.61,0,*67
1516748678.99,55800,4.88,73510.5,-13.27,-14.43,-14.61,0,*6F
1516748680.26,55801,4.88,73508.5,-13.27,-14.43,-14.75,0,*6B
1516748681.52,55802,4.88,73514.0,-13.27,-14.47,-14.69,0,*61
1516748682.79,55803,4.88,73518.5,-13.27,-14.47,-14.75,0,*6D
1516748684.07,55804,4.88,73508.3,-13.27,-14.55,-14.75,0,*69
1516748685.36,55805,4.88,73508.8,-13.25,-14.55,-14.83,0,*63
1516748686.65,55806,4.88,73506.0,-13.27,-14.47,-14.97,0,*64
1516748687.86,55807,4.88,73506.8,-13.27,-14.69,-14.89,0,*66
1516748689.1,55808,4.88,73508.3,-13.27,-14.69,-14.97,0,*66
1516748690.35,55809,4.88,73506.5,-13.27,-14.61,-14.83,0,*6A
1516748691.59,55810,4.88,73508.5,-13.25,-14.69,-14.89,0,*62
1516748692.84,55811,4.88,73508.0,-13.27,-14.55,-14.89,0,*6E
1516748694.06,55812,4.88,73504.5,-13.27,-14.61,-14.89,0,*6A
1516748695.31,55813,4.88,73504.5,-13.27,-14.61,-14.97,0,*64
1516748696.56,55814,4.88,73508.5,-13.27,-14.61,-14.97,0,*63
1516748697.81,55815,4.88,73508.5,-13.27,-14.61,-14.97,0,*62
1516748699.1,55816,4.88,73506.0,-13.25,-14.75,-14.97,0,*66
1516748700.38,55817,4.88,73508.8,-13.27,-14.83,-14.97,0,*6C
1516748701.65,55818,4.88,73510.3,-13.27,-14.75,-14.97,0,*6A
1516748702.94,55819,4.88,73508.0,-13.25,-14.83,-15.01,0,*6E
1516748704.21,55820,4.88,73508.8,-13.27,-14.75,-15.01,0,*6F
1516748705.48,55821,4.88,73512.0,-13.27,-14.83,-15.01,0,*67
1516748706.76,55822,4.88,73508.3,-13.27,-14.83,-15.01,0,*64
1516748708.03,55823,4.88,73508.0,-13.25,-14.83,-15.11,0,*66
1516748709.27,55824,4.88,73506.8,-13.25,-14.89,-15.15,0,*6F
1516748710.51,55825,4.88,73508.3,-13.27,-14.97,-15.11,0,*67
1516748711.75,55826,4.88,73512.3,-13.27,-14.97,-15.11,0,*64
1516748712.98,55827,4.88,73510.8,-13.27,-14.89,-15.11,0,*6A
1516748714.22,55828,4.88,73512.3,-13.25,-14.89,-15.15,0,*63
1516748715.48,55829,4.88,73510.8,-13.27,-14.97,-15.21,0,*68
1516748716.75,55830,4.88,73510.5,-13.27,-14.97,-15.21,0,*60
1516748717.99,55831,4.88,73510.0,-13.27,-15.01,-15.29,0,*67
1516748719.25,55832,4.88,73514.3,-13.27,-15.01,-15.35,0,*69
1516748720.52,55833,4.88,73512.0,-13.27,-15.01,-15.43,0,*69
1516748721.77,55834,4.88,73510.8,-13.27,-15.11,-15.43,0,*6F
1516748723.02,55835,4.88,73512.3,-13.27,-15.15,-15.43,0,*6A
1516748724.27,55836,4.88,73516.3,-13.27,-15.15,-15.43,0,*69
1516748725.53,55837,4.88,73512.0,-13.29,-15.21,-15.49,0,*6B
1516748726.81,55838,4.88,73518.5,-13.29,-15.15,-15.43,0,*69
1516748728.07,55839,4.88,73518.5,-13.29,-15.11,-15.35,0,*6D
1516748729.33,55840,4.88,73520.8,-13.29,-15.11,-15.35,0,*63
1516748730.57,55841,4.88,73518.0,-13.33,-15.11,-15.49,0,*62
1516748731.84,55842,4.88,73520.3,-13.29,-15.15,-15.35,0,*65
1516748733.12,55843,4.88,73514.3,-13.29,-15.01,-15.21,0,*64
1516748734.37,55844,4.88,73510.3,-13.29,-14.89,-15.15,0,*65
1516748735.63,55845,4.88,73510.5,-13.33,-14.89,-15.01,0,*6A
1516748736.9,55846,4.88,73508.3,-13.29,-14.89,-15.01,0,*62
1516748738.15,55847,4.88,73510.3,-13.29,-14.69,-15.01,0,*6D
1516748739.44,55848,4.88,73508.3,-13.29,-14.75,-15.01,0,*6F
1516748740.73,55849,4.88,73512.8,-13.29,-14.75,-15.01,0,*6E
1516748741.97,55850,4.88,73510.8,-13.29,-14.89,-15.11,0,*64
1516748743.23,55851,4.88,73510.3,-13.29,-14.89,-15.01,0,*64
1516748744.51,55852,4.88,73512.5,-13.29,-14.83,-15.15,0,*68
1516748745.77,55853,4.88,73514.5,-13.29,-14.89,-15.21,0,*64
1516748747.01,55854,4.88,73516.3,-13.27,-14.97,-15.15,0,*65
1516748748.27,55855,4.88,73516.3,-13.33,-15.01,-15.15,0,*6F
1516748749.56,55856,4.88,73510.5,-13.29,-14.97,-15.21,0,*6E
1516748750.84,55857,4.88,73508.3,-13.29,-14.97,-15.21,0,*6F
1516748752.13,55858,4.88,73514.3,-13.29,-14.97,-15.21,0,*60
1516748753.37,55859,4.88,73516.3,-13.29,-14.89,-15.15,0,*69
1516748754.61,55860,4.88,73512.8,-13.29,-14.89,-15.15,0,*63
1516748755.9,55861,4.88,73510.3,-13.29,-14.83,-15.01,0,*6D
1516748757.15,55862,4.88,73512.5,-13.29,-14.61,-14.89,0,*63
1516748758.44,55863,4.88,73510.0,-13.29,-14.55,-14.83,0,*6F
1516748759.74,55864,4.88,73510.5,-13.33,-14.51,-14.75,0,*6E
1516748761.01,55865,4.88,73508.5,-13.29,-14.43,-14.69,0,*6A
1516748762.27,55866,4.88,73512.3,-13.29,-14.43,-14.61,0,*61
1516748763.52,55867,4.88,73510.5,-13.27,-14.43,-14.69,0,*66
1516748764.79,55868,4.88,73508.5,-13.27,-14.43,-14.75,0,*64
1516748766.05,55869,4.88,73510.8,-13.27,-14.19,-14.47,0,*6B
1516748767.29,55870,4.88,73506.5,-13.27,-14.11,-14.43,0,*6F
1516748768.54,55871,4.88,73504.3,-13.25,-14.11,-14.19,0,*63
1516748769.78,55872,4.88,73504.8,-13.25,-14.11,-14.29,0,*63
1516748771.03,55873,4.88,73504.8,-13.25,-14.15,-14.33,0,*6D
1516748772.31,55874,4.88,73504.8,-13.25,-14.15,-14.55,0,*6A
1516748773.53,55875,4.88,73510.0,-13.27,-14.29,-14.61,0,*61
1516748774.79,55876,4.88,73508.3,-13.25,-14.43,-14.69,0,*64
1516748776.09,55877,4.88,73510.5,-13.25,-14.55,-14.83,0,*66
1516748777.37,55878,4.88,73508.8,-13.25,-14.55,-14.89,0,*63
1516748778.63,55879,4.88,73510.5,-13.25,-14.69,-14.97,0,*62
1516748779.86,55880,4.88,73510.0,-13.23,-14.65,-14.93,0,*6A
1516748781.1,55881,4.88,73514.0,-13.23,-14.69,-14.93,0,*67
1516748782.34,55882,4.88,73514.3,-13.23,-14.79,-15.07,0,*69
1516748783.58,55883,4.88,73518.8,-13.23,-14.79,-15.07,0,*68
1516748784.83,55884,4.88,73518.3,-13.23,-14.83,-15.07,0,*6A
1516748786.08,55885,4.88,73512.8,-13.23,-14.83,-15.15,0,*68
1516748787.33,55886,4.88,73508.8,-13.23,-14.83,-15.15,0,*6B
1516748788.57,55887,4.88,73508.3,-13.25,-14.89,-15.11,0,*62
1516748789.86,55888,4.88,73510.0,-13.25,-14.83,-15.01,0,*66
1516748791.15,55889,4.88,73510.0,-13.25,-14.75,-15.01,0,*6E
1516748792.39,55890,4.88,73512.0,-13.27,-14.69,-15.01,0,*69
1516748793.68,55891,4.88,73516.8,-13.25,-14.75,-15.01,0,*67
1516748794.94,55892,4.88,73516.8,-13.25,-14.69,-15.01,0,*69
1516748796.22,55893,4.88,73518.5,-13.25,-14.75,-15.01,0,*65
1516748797.52,55894,4.88,73518.5,-13.25,-14.75,-14.97,0,*6C
1516748798.76,55895,4.88,73514.0,-13.25,-14.61,-14.89,0,*67
1516748800.01,55896,4.88,73512.5,-13.27,-14.61,-14.83,0,*6C
1516748801.3,55897,4.88,73512.8,-13.25,-14.55,-14.83,0,*68
1516748802.54,55898,4.88,73512.8,-13.23,-14.65,-14.79,0,*67
1516748803.82,55899,4.88,73514.3,-13.23,-14.55,-14.79,0,*65
1516748805.06,55900,4.88,73514.0,-13.23,-14.51,-14.69,0,*61
1516748806.31,55901,4.88,73514.3,-13.23,-14.23,-14.51,0,*6E
1516748807.56,55902,4.88,73514.0,-13.23,-14.15,-14.51,0,*68
1516748808.82,55903,4.88,73510.0,-13.23,-14.15,-14.51,0,*69
1516748810.07,55904,4.88,73500.3,-13.23,-14.23,-14.51,0,*6B
1516748811.31,55905,4.88,73502.3,-13.23,-14.23,-14.55,0,*6E
1516748812.53,55906,4.88,73500.5,-13.23,-14.37,-14.69,0,*67
1516748813.75,55907,4.88,73506.8,-13.23,-14.29,-14.69,0,*69
1516748814.99,55908,4.88,73506.0,-13.23,-14.51,-14.69,0,*69
1516748816.28,55909,4.88,73504.0,-13.21,-14.43,-14.79,0,*68
1516748817.56,55910,4.88,73508.3,-13.23,-14.55,-14.83,0,*60
1516748818.82,55911,4.88,73506.3,-13.21,-14.65,-14.93,0,*61
1516748820.11,55912,4.88,73508.5,-13.21,-14.79,-14.93,0,*6F
1516748821.4,55913,4.88,73510.3,-13.21,-14.79,-14.93,0,*6E
1516748822.69,55914,4.88,73506.5,-13.21,-14.79,-14.93,0,*69
1516748823.94,55915,4.88,73510.0,-13.21,-14.69,-14.93,0,*69
1516748825.23,55916,4.88,73514.0,-13.21,-14.79,-14.93,0,*6B
1516748826.5,55917,4.88,73508.0,-13.23,-14.79,-14.97,0,*6C
1516748827.74,55918,4.88,73510.5,-13.23,-14.79,-15.07,0,*6B
1516748829.01,55919,4.88,73510.3,-13.21,-14.93,-15.11,0,*6B
1516748830.24,55920,4.88,73504.8,-13.23,-14.93,-15.11,0,*63
1516748831.51,55921,4.88,73502.3,-13.21,-14.93,-15.11,0,*60
1516748832.77,55922,4.88,73506.0,-13.21,-14.93,-15.11,0,*63
1516748834.02,55923,4.88,73508.8,-13.23,-14.83,-15.11,0,*61
1516748835.28,55924,4.88,73508.5,-13.23,-14.93,-14.97,0,*68
1516748836.55,55925,4.88,73510.0,-13.23,-14.83,-14.97,0,*68
1516748837.82,55926,4.81,73516.8,-13.21,-14.69,-14.97,0,*6D
1516748839.05,55927,4.88,73516.8,-13.23,-14.69,-14.97,0,*6E
1516748840.31,55928,4.88,73514.5,-13.21,-14.69,-14.83,0,*66
1516748841.57,55929,4.88,73516.3,-13.21,-14.69,-14.93,0,*66
1516748842.84,55930,4.88,73512.3,-13.23,-14.55,-14.93,0,*63
1516748844.11,55931,4.88,73512.3,-13.21,-14.65,-14.83,0,*62
1516748845.4,55932,4.88,73512.0,-13.21,-14.51,-14.83,0,*66
1516748846.7,55933,4.88,73514.0,-13.21,-14.55,-14.79,0,*66
1516748847.99,55934,4.88,73504.8,-13.21,-14.55,-14.79,0,*61
1516748849.26,55935,4.88,73510.0,-13.21,-14.65,-14.83,0,*66
1516748850.55,55936,4.88,73508.8,-13.21,-14.79,-14.93,0,*69
1516748851.81,55937,4.88,73508.8,-13.21,-14.69,-14.97,0,*6D
1516748853.1,55938,4.88,73504.0,-13.21,-14.93,-14.97,0,*67
1516748854.34,55939,4.88,73504.5,-13.23,-14.83,-15.11,0,*6A
1516748855.64,55940,4.88,73510.3,-13.21,-14.83,-14.97,0,*69
1516748856.88,55941,4.88,73508.0,-13.23,-14.93,-15.07,0,*63
1516748858.13,55942,4.88,73510.0,-13.23,-14.83,-15.07,0,*61
1516748859.42,55943,4.88,73510.8,-13.21,-14.93,-14.97,0,*6B
1516748860.69,55944,4.88,73510.5,-13.23,-14.83,-14.97,0,*6F
1516748861.96,55945,4.88,73508.8,-13.23,-14.79,-14.97,0,*6B
1516748863.25,55946,4.88,73512.8,-13.21,-14.79,-14.97,0,*6A
1516748864.52,55947,4.88,73508.5,-13.23,-14.79,-14.97,0,*69
1516748865.81,55948,4.88,73508.0,-13.21,-14.79,-14.93,0,*60
1516748867.07,55949,4.88,73514.0,-13.21,-14.65,-14.93,0,*6C
1516748868.37,55950,4.88,73508.8,-13.21,-14.55,-14.83,0,*66
1516748869.61,55951,4.88,73510.8,-13.23,-14.43,-14.69,0,*66
1516748870.85,55952,4.88,73506.3,-13.21,-14.37,-14.65,0,*68
1516748872.1,55953,4.88,73500.0,-13.23,-14.37,-14.55,0,*68
1516748873.35,55954,4.88,73502.3,-13.21,-14.29,-14.65,0,*61
1516748874.59,55955,4.88,73498.8,-13.21,-14.37,-14.65,0,*6F
1516748875.86,55956,4.88,73502.3,-13.21,-14.51,-14.69,0,*60
1516748877.16,55957,4.88,73500.8,-13.21,-14.51,-14.79,0,*60
1516748878.45,55958,4.88,73502.5,-13.21,-14.55,-14.93,0,*6F
1516748879.67,55959,4.88,73500.5,-13.19,-14.61,-14.89,0,*69
1516748880.93,55960,4.88,73494.5,-13.21,-14.65,-14.93,0,*67
1516748882.2,55961,4.88,73498.3,-13.21,-14.65,-14.93,0,*66
1516748883.45,55962,4.88,73512.5,-13.21,-14.69,-14.93,0,*69
1516748884.71,55963,4.88,73520.8,-13.21,-14.69,-14.93,0,*68
1516748885.98,55964,4.88,73504.3,-13.21,-14.65,-14.97,0,*67
1516748887.27,55965,4.88,73498.8,-13.21,-14.55,-14.93,0,*61
1516748888.53,55966,4.88,73502.0,-13.21,-14.65,-14.83,0,*60
1516748889.83,55967,4.88,73504.0,-13.21,-14.55,-14.83,0,*62
1516748891.07,55968,4.81,73502.3,-13.19,-14.61,-14.79,0,*64
1516748892.31,55969,4.88,73506.3,-13.19,-14.61,-14.79,0,*65
1516748893.61,55970,4.88,73508.0,-13.21,-14.55,-14.83,0,*64
1516748894.83,55971,4.88,73504.3,-13.19,-14.61,-14.89,0,*63
1516748896.05,55972,4.81,73498.8,-13.19,-14.61,-14.89,0,*60
1516748897.27,55973,4.88,73502.0,-13.19,-14.61,-14.89,0,*61
1516748898.49,55974,4.88,73500.0,-13.19,-14.61,-14.89,0,*66
1516748899.73,55975,4.88,73502.5,-13.19,-14.65,-14.93,0,*68
1516748900.97,55976,4.88,73502.8,-13.19,-14.75,-14.89,0,*61
1516748902.19,55977,4.88,73498.8,-13.19,-14.65,-14.89,0,*61
1516748903.46,55978,4.81,73498.0,-13.19,-14.79,-14.93,0,*68